Oak Harbor, WA

3:14 PM PDT on October 01, 2016 (GMT -0700)
Whidbey Island Naval Air Station

Weather History for KNUW - May, 2014

Change the Weather History Date:

Friday, May 9, 2014

  Actual Average Record
Temperature  
Mean Temperature 54 °F -  
Max Temperature 57 °F 55 °F 66 °F (2015)
Min Temperature 50 °F 42 °F 37 °F (2002)
Degree Days  
Heating Degree Days 12    
Growing Degree Days 4 (Base 50)    
Moisture  
Dew Point 45 °F    
Average Humidity 75    
Maximum Humidity 89    
Minimum Humidity 59    
Precipitation  
Precipitation 0.51 in - - ()
Sea Level Pressure  
Sea Level Pressure 29.89 in    
Wind  
Wind Speed 6 mph (South)    
Max Wind Speed 12 mph    
Max Gust Speed -    
Visibility 9 miles    
Events Rain    
Averages and records for this station are not official NWS values.
T = Trace of Precipitation, MM = Missing Value Source: NWS Daily Summary

Daily Weather History Graph

Daily Weather History Graph

Search for Another Location

Airport or City:

Trip Planner

Search our weather history database for the weather conditions in past years. The results will help you decide how hot, cold, wet, or windy it might be!

Date:

Astronomy

May. 09, 2014 Rise Set
Actual Time 5:38 AM PDT 8:36 PM PDT
Civil Twilight 5:02 AM PDT 9:12 PM PDT
Nautical Twilight 4:15 AM PDT 9:59 PM PDT
Astronomical Twilight 3:18 AM PDT 10:57 PM PDT
Moon 3:15 PM PDT (5/9) 3:09 AM PDT (5/9)
Length of Visible Light 16h 10m
Length of Day
14h 57m
Waxing Gibbous, 74% of the Moon is Illuminated
May 9
Waxing Gibbous
May 14
Full
May 21
Last Quarter
May 28
New
Jun 5
First Quarter

Hourly Weather History & Observations

Time (PDT) Temp. Dew Point Humidity Pressure Visibility Wind Dir Wind Speed Gust Speed Precip Events Conditions
12:56 AM 53.1 °F 46.9 °F 80% 29.72 in 7.0 mi WSW 8.1 mph - 0.04 in Rain Light Rain
1:56 AM 52.0 °F 45.0 °F 77% 29.75 in 5.0 mi WSW 8.1 mph - 0.12 in Rain Rain
2:56 AM 50.0 °F 46.9 °F 89% 29.77 in 4.0 mi ESE 4.6 mph - 0.14 in Rain Rain
3:56 AM 51.1 °F 46.0 °F 83% 29.79 in 10.0 mi ESE 3.5 mph - 0.06 in Rain Light Rain
4:56 AM 51.1 °F 46.9 °F 86% 29.81 in 10.0 mi SW 8.1 mph - 0.01 in Rain Light Rain
5:56 AM 51.1 °F 46.0 °F 83% 29.82 in 10.0 mi SW 5.8 mph - 0.01 in Rain Light Rain
6:46 AM 52.0 °F 45.0 °F 77% 29.82 in 10.0 mi SSW 5.8 mph - 0.00 in   Overcast
6:56 AM 51.1 °F 45.0 °F 80% 29.84 in 10.0 mi SW 5.8 mph - 0.00 in   Overcast
7:14 AM 52.0 °F 45.0 °F 77% 29.83 in 9.0 mi SW 9.2 mph - 0.00 in Rain Light Rain
7:48 AM 52.0 °F 45.0 °F 77% 29.84 in 10.0 mi SW 11.5 mph - 0.00 in   Overcast
7:56 AM 52.0 °F 45.0 °F 77% 29.86 in 10.0 mi SW 8.1 mph - 0.00 in   Overcast
8:56 AM 54.0 °F 45.0 °F 72% 29.87 in 10.0 mi WSW 6.9 mph - N/A   Mostly Cloudy
9:56 AM 55.9 °F 45.0 °F 67% 29.89 in 10.0 mi WSW 8.1 mph - N/A   Mostly Cloudy
10:56 AM 53.1 °F 44.1 °F 71% 29.91 in 10.0 mi Calm Calm - N/A   Overcast
11:12 AM 54.0 °F 44.1 °F 69% 29.90 in 8.0 mi Calm Calm - 0.00 in Rain Light Rain
11:45 AM 53.1 °F 46.0 °F 77% 29.90 in 6.0 mi Calm Calm - 0.02 in Rain Light Rain
11:56 AM 53.1 °F 48.9 °F 86% 29.92 in 5.0 mi Calm Calm - 0.03 in Rain Light Rain
12:19 PM 50.0 °F 45.0 °F 83% 29.91 in 3.0 mi East 6.9 mph - 0.07 in Rain Heavy Rain
12:56 PM 53.1 °F 46.0 °F 77% 29.91 in 10.0 mi NE 5.8 mph - 0.10 in   Mostly Cloudy
1:56 PM 54.0 °F 44.1 °F 69% 29.93 in 10.0 mi North 3.5 mph - N/A   Mostly Cloudy
2:56 PM 57.0 °F 48.0 °F 72% 29.94 in 10.0 mi ESE 6.9 mph - N/A   Mostly Cloudy
3:41 PM 55.9 °F 44.1 °F 64% 29.93 in 10.0 mi East 5.8 mph - N/A   Mostly Cloudy
3:56 PM 55.0 °F 43.0 °F 64% 29.94 in 10.0 mi East 6.9 mph - N/A   Overcast
4:56 PM 55.0 °F 44.1 °F 67% 29.94 in 10.0 mi WSW 6.9 mph - N/A   Mostly Cloudy
5:56 PM 55.0 °F 43.0 °F 64% 29.95 in 10.0 mi SSE 9.2 mph - N/A   Mostly Cloudy
6:09 PM 55.0 °F 44.1 °F 67% 29.94 in 10.0 mi South 5.8 mph - N/A   Mostly Cloudy
6:56 PM 55.0 °F 41.0 °F 59% 29.95 in 10.0 mi South 8.1 mph - N/A   Mostly Cloudy
7:56 PM 53.1 °F 43.0 °F 69% 29.96 in 10.0 mi South 8.1 mph - N/A   Mostly Cloudy
8:56 PM 52.0 °F 45.0 °F 77% 29.98 in 10.0 mi East 5.8 mph - N/A   Overcast
9:56 PM 51.1 °F 45.0 °F 80% 30.00 in 10.0 mi Calm Calm - N/A   Mostly Cloudy
10:56 PM 51.1 °F 46.0 °F 83% 30.01 in 10.0 mi Calm Calm - N/A   Mostly Cloudy
11:56 PM 50.0 °F 45.0 °F 83% 30.02 in 10.0 mi Calm Calm - N/A   Mostly Cloudy